[[{"header":{"parameterUnit":"m.s-1","parameterCategory":1,"la1":30.2991,"la2":30.254,"lo1":-89.0895,"lo2":-89.0444,"dy":0.0017,"dx":0.0017,"nx":28,"ny":28,"refTime":"2023-08-04T03:00:00:Z","depth":0,"parameterNumber":2,"parameterNumberName":"U-component_of_WINDS"},"data":[0,0,0,0,0,0,0,0,0,0,0,0,0,0,0,0,0,0,0,0,0,0,0,0,0,0,0,0,0,0,0,0,0,0,0,0,0,0,0,0,0,0,0,0,0,0,0,0,0,0,0,0,0,0,0,0,0,0,2.3794,2.3794,0,2.3792,2.3792,2.3792,2.3704,2.3702,2.37,2.3698,2.3699,2.3701,2.3703,0,0,0,0,0,0,0,0,0,0,0,0,0,2.3721,2.3723,2.3794,2.3794,2.3794,2.3792,2.3792,2.3792,2.3705,2.3702,2.3699,2.3696,2.3698,2.3701,2.3704,0,0,0,0,0,0,0,0,0,0,0,0,0,2.374,2.3724,2.3794,2.375,2.3746,2.3792,2.3792,2.3792,2.3705,2.3702,2.3698,2.3695,2.3698,2.3701,2.3704,2.3793,0,0,2.3714,2.3715,0,0,0,0,0,0,0,0,2.3739,2.3743,2.3756,2.3753,2.3748,2.3745,2.3767,2.3793,2.3706,2.3721,2.3697,2.3693,2.3717,2.3719,2.3726,2.3793,2.3793,2.3714,2.3716,2.3718,2.3719,0,0,0,0,0,0,0,2.3738,2.3742,2.3793,2.3756,2.3752,2.373,2.3729,2.3772,2.3739,2.3719,2.3713,2.3714,2.3715,2.3723,2.3726,2.3793,2.3714,2.3717,2.3719,2.372,2.393,2.3933,0,0,0,0,0,0,2.3742,2.3742,2.3793,2.3793,2.3735,2.3734,2.3733,2.375,2.3738,2.3733,2.3717,2.371,2.3719,2.3722,2.3725,2.3826,2.3718,2.3721,2.3723,2.3926,2.393,2.3934,0,0,0,0,0,0,2.3741,2.3748,2.3793,2.3766,2.377,2.3739,2.3758,2.3751,2.376,2.3736,2.373,2.3731,2.3717,2.3721,2.3776,2.3825,2.3722,2.3725,2.3922,2.3927,2.3932,2.403,0,0,0,0,0,0,2.3739,2.3748,2.3781,2.3767,2.3771,2.3844,2.3762,2.3754,2.3765,2.3756,2.3748,2.3743,2.3714,2.3771,2.3779,2.3828,2.3728,2.3917,2.3924,2.3931,2.4023,2.4039,2.4052,0,0,0,0,0,2.3737,2.3811,2.3784,2.379,2.3813,2.3847,2.385,2.3814,2.377,2.3803,2.3787,2.3744,2.3819,2.3778,2.3786,2.3836,2.3914,2.3922,2.393,2.4016,2.4035,2.4052,0,0,0,0,0,0,2.3834,2.3808,2.3778,2.3849,2.385,2.3832,2.3873,2.3836,2.3851,2.3842,2.3798,2.3797,2.3858,2.3853,2.3808,2.392,2.3858,2.3869,2.3921,2.3939,2.3954,2.3953,2.373,0,0,0,0,0,2.3863,2.3892,2.3869,2.3934,2.3936,2.3904,2.3918,2.389,2.389,2.3891,2.3879,2.3882,2.3905,2.3922,2.3943,2.4022,2.4017,2.406,2.4075,2.4087,2.4096,2.4134,2.4152,2.3961,2.3961,2.3961,0,0,2.3925,2.3914,2.3936,2.3952,2.395,2.3981,2.3906,2.3943,2.3965,2.3897,2.3947,2.3939,2.3939,2.4005,2.4034,2.4002,2.4147,2.4097,2.4107,2.4109,2.4144,2.4162,2.4178,2.3966,2.3965,2.3965,0,0,2.4051,2.4048,2.4099,2.4098,2.4095,2.4073,2.4086,2.4072,2.4063,2.4113,2.4061,2.4088,2.413,2.4131,2.4137,2.4262,2.4221,2.427,2.4346,2.4384,2.4399,2.4412,2.4454,2.447,2.4279,2.4279,2.4279,0,2.4129,2.4172,2.4131,2.417,2.4178,2.4116,2.4167,2.4169,2.4173,2.418,2.4145,2.4194,2.4191,2.4255,2.4284,2.4293,2.4304,2.427,2.44,2.4413,2.4424,2.4464,2.448,2.4285,2.4284,2.4284,2.4283,0,2.4266,2.4297,2.4339,2.4342,2.4355,2.4401,2.4366,2.4384,2.4354,2.4336,2.4386,2.4379,2.4395,2.4409,2.4381,2.4468,2.4449,2.4408,2.4345,2.4449,2.4485,2.45,2.4293,2.4291,2.4289,2.4288,0,0,2.4455,2.4432,2.4448,2.4447,2.4438,2.4462,2.4504,2.4518,2.4533,2.4538,2.4571,2.4607,2.4568,2.4575,2.4547,2.458,2.4676,2.4534,2.4534,2.4559,2.4769,2.4798,2.4817,2.4649,2.4652,2.4654,2.4768,0,2.4576,2.4644,2.4607,2.4681,2.4707,2.4647,2.4683,2.4682,2.4666,2.4686,2.4668,2.4694,2.4641,2.4644,2.4675,2.4658,2.4717,2.4649,2.4679,2.468,2.4679,2.4836,2.4868,2.4976,2.4782,2.4784,2.4786,0,2.4726,2.4734,2.481,2.4792,2.4802,2.4835,2.4844,2.4865,2.4861,2.4846,2.4853,2.4816,2.4855,2.4793,2.4846,2.48,2.481,2.4804,2.4807,2.4807,2.4739,2.4839,2.5009,2.5025,2.4809,2.4807,2.4805,0,2.4853,2.4884,2.4932,2.4933,2.4915,2.4939,2.4933,2.4925,2.4935,2.4943,2.4949,2.4962,2.4969,2.4981,2.4948,2.4906,2.5004,2.494,2.4992,2.4993,2.5015,2.5014,2.5188,2.5024,2.5024,2.5024,2.5024,0,2.4991,2.5039,2.4988,2.5018,2.5069,2.5026,2.5078,2.5066,2.5059,2.5085,2.5035,2.506,2.5016,2.5037,2.5012,2.5058,2.5062,2.5051,2.5044,2.5055,2.5056,2.506,2.5051,2.5028,2.5027,2.5026,2.5026,0,2.5142,2.5109,2.5157,2.5135,2.513,2.5169,2.515,2.5176,2.5155,2.5188,2.5194,2.5162,2.5184,2.5152,2.5172,2.5154,2.5217,2.5199,2.5218,2.5212,2.5264,2.5259,2.5446,2.5467,2.5292,2.5294,2.5295,0,2.5231,2.5266,2.5246,2.5258,2.5254,2.5276,2.5285,2.5243,2.5255,2.5251,2.5277,2.5295,2.5306,2.5343,2.5322,2.5336,2.5317,2.5381,2.5319,2.5328,2.5315,2.5313,2.5315,2.5394,2.5396,2.5398,2.5399,0,2.5392,2.5373,2.5387,2.5395,2.5407,2.5412,2.5413,2.5427,2.5382,2.5398,2.5418,2.5427,2.5444,2.5462,2.5469,2.5463,2.5424,2.5419,2.5431,2.5442,2.545,2.5444,2.525,2.5415,2.5413,2.5412,2.5411,2.5411,2.5513,2.554,2.5529,2.5545,2.5541,2.5543,2.5565,2.5546,2.5562,2.5572,2.5546,2.5572,2.5565,2.5571,2.5569,2.5589,2.5561,2.558,2.5584,2.5589,2.5596,2.5448,2.5591,2.559,2.559,2.5589,2.5589,0,2.5669,2.5658,2.5674,2.5675,2.5688,2.5648,2.5647,2.566,2.5683,2.5679,2.569,2.5713,2.5728,2.5708,2.5719,2.5739,2.5721,2.5744,2.5741,2.574,2.5621,2.5608,2.5758,2.5758,2.5758,2.5757,2.5757,2.5757,2.5751,2.5794,2.5774,2.5813,2.5802,2.5826,2.5828,2.5829,2.5825,2.5851,2.5863,2.5849,2.5838,2.5848,2.586,2.5854,2.586,2.5888,2.5875,2.5765,2.5748,2.5733,2.572,2.589,2.589,2.5991,2.5992,2.5993]},{"header":{"parameterUnit":"m.s-1","parameterCategory":1,"la1":30.2991,"la2":30.254,"lo1":-89.0895,"lo2":-89.0444,"dy":0.0017,"dx":0.0017,"nx":28,"ny":28,"refTime":"2023-08-04T03:00:00:Z","depth":0,"parameterNumber":3,"parameterNumberName":"V-component_of_WINDS"},"data":[0,0,0,0,0,0,0,0,0,0,0,0,0,0,0,0,0,0,0,0,0,0,0,0,0,0,0,0,0,0,0,0,0,0,0,0,0,0,0,0,0,0,0,0,0,0,0,0,0,0,0,0,0,0,0,0,0,0,5.6762,5.6763,0,5.6826,5.6827,5.6828,5.6762,5.6759,5.6757,5.6754,5.6814,5.6817,5.6821,0,0,0,0,0,0,0,0,0,0,0,0,0,5.6576,5.658,5.6762,5.6763,5.6764,5.6826,5.6827,5.6828,5.6762,5.6759,5.6756,5.6753,5.6812,5.6817,5.6822,0,0,0,0,0,0,0,0,0,0,0,0,0,5.665,5.6581,5.6762,5.6739,5.6737,5.6826,5.6827,5.6828,5.6763,5.6759,5.6755,5.6752,5.6811,5.6817,5.6822,5.6935,0,0,5.684,5.6843,0,0,0,0,0,0,0,0,5.6646,5.6657,5.6741,5.6741,5.6739,5.6782,5.6783,5.6864,5.6764,5.6753,5.6754,5.675,5.6806,5.6812,5.6832,5.6938,5.694,5.6841,5.6845,5.6847,5.6849,0,0,0,0,0,0,0,5.6641,5.6654,5.6787,5.6743,5.6741,5.6723,5.6729,5.6798,5.68,5.6754,5.6749,5.6758,5.6804,5.6827,5.6833,5.6941,5.6841,5.6846,5.685,5.6852,5.714,5.7144,0,0,0,0,0,0,5.6639,5.665,5.6785,5.6789,5.6683,5.6729,5.6736,5.6772,5.6799,5.6799,5.6761,5.6755,5.6818,5.6826,5.6835,5.6967,5.6847,5.6853,5.6856,5.7136,5.7141,5.7146,0,0,0,0,0,0,5.6636,5.6652,5.6783,5.6719,5.6734,5.6737,5.6777,5.6775,5.6797,5.6805,5.6804,5.6784,5.6816,5.6826,5.6911,5.6968,5.6855,5.6861,5.7132,5.7138,5.7144,5.7234,0,0,0,0,0,0,5.6631,5.6651,5.6696,5.672,5.6738,5.686,5.6781,5.6779,5.6809,5.6801,5.6826,5.6826,5.6813,5.6902,5.6917,5.6974,5.6865,5.7126,5.7134,5.7142,5.7225,5.7242,5.7256,0,0,0,0,0,5.6624,5.6718,5.6699,5.6715,5.6794,5.6863,5.6873,5.6858,5.6814,5.6857,5.6861,5.6825,5.696,5.6911,5.6927,5.6987,5.7123,5.7132,5.7141,5.7218,5.7239,5.7256,0,0,0,0,0,0,5.6698,5.672,5.6699,5.6804,5.6833,5.6852,5.6907,5.688,5.6921,5.6911,5.6889,5.6895,5.6985,5.6994,5.694,5.7097,5.7034,5.7046,5.7087,5.7106,5.7122,5.7116,5.687,0,0,0,0,0,5.6727,5.6784,5.6799,5.689,5.6906,5.6904,5.6934,5.692,5.6948,5.6959,5.6969,5.6996,5.7044,5.7076,5.7121,5.7227,5.723,5.7276,5.7291,5.7304,5.7315,5.737,5.739,5.7176,5.7176,5.7176,0,0,5.6786,5.6806,5.6842,5.6905,5.6926,5.6983,5.6914,5.6978,5.7019,5.6968,5.7048,5.7057,5.7085,5.718,5.7222,5.7191,5.7375,5.7316,5.7326,5.733,5.7381,5.7401,5.7419,5.7182,5.7181,5.718,0,0,5.6923,5.6945,5.7022,5.7044,5.7077,5.7075,5.7093,5.7117,5.7121,5.7202,5.7164,5.7212,5.7296,5.7317,5.7338,5.7483,5.745,5.7498,5.7578,5.7632,5.7648,5.7663,5.7713,5.7731,5.7509,5.7509,5.7509,0,5.6992,5.7079,5.7064,5.7131,5.7158,5.7116,5.7193,5.7214,5.7259,5.7278,5.7242,5.7346,5.7362,5.7461,5.7496,5.7516,5.7534,5.7494,5.7648,5.7662,5.7676,5.7723,5.7742,5.7515,5.7514,5.7514,5.7513,0,5.7161,5.7221,5.7279,5.7326,5.736,5.7431,5.7424,5.746,5.7444,5.7445,5.7526,5.7544,5.7591,5.7614,5.7597,5.771,5.7689,5.7651,5.7587,5.7702,5.7745,5.7763,5.7523,5.7521,5.7519,5.7518,0,0,5.7345,5.7383,5.7404,5.7424,5.7457,5.7502,5.757,5.7618,5.7648,5.768,5.7735,5.7807,5.7772,5.7796,5.7782,5.7829,5.794,5.7785,5.7785,5.7812,5.8063,5.809,5.8111,5.792,5.7923,5.7926,5.806,0,5.7482,5.7602,5.7591,5.7704,5.7758,5.7719,5.7778,5.7803,5.7806,5.785,5.7852,5.7903,5.7854,5.7869,5.7914,5.7917,5.799,5.7908,5.7968,5.797,5.7961,5.8134,5.8163,5.8289,5.8077,5.808,5.8082,0,5.7657,5.7697,5.7816,5.784,5.7862,5.7916,5.7957,5.8002,5.8028,5.8027,5.8055,5.8032,5.8097,5.8034,5.8122,5.8067,5.809,5.8096,5.81,5.8104,5.8032,5.814,5.8329,5.8347,5.8109,5.8107,5.8105,0,5.7777,5.7861,5.7943,5.7961,5.7991,5.8029,5.8043,5.8066,5.8095,5.8131,5.8149,5.8192,5.8215,5.8247,5.8236,5.8191,5.8326,5.8262,5.8325,5.8325,5.8354,5.8352,5.8546,5.8373,5.8372,5.8372,5.8371,0,5.7929,5.8003,5.7997,5.8047,5.8128,5.8113,5.8193,5.8201,5.8222,5.8271,5.824,5.8286,5.8269,5.8314,5.8305,5.8378,5.8389,5.8388,5.8385,5.839,5.839,5.8404,5.8394,5.8377,5.8376,5.8375,5.8374,0,5.8077,5.8076,5.8162,5.8184,5.8191,5.8249,5.8266,5.8312,5.8313,5.8375,5.8389,5.8389,5.844,5.8432,5.8488,5.8482,5.8574,5.856,5.8565,5.8562,5.8624,5.8618,5.8834,5.886,5.8671,5.8673,5.8674,0,5.8173,5.823,5.8258,5.8289,5.8306,5.8358,5.8388,5.8375,5.8406,5.8441,5.8482,5.8531,5.8568,5.8651,5.8655,5.8697,5.8683,5.8756,5.8689,5.8692,5.8682,5.8678,5.8682,5.8768,5.877,5.8772,5.8774,0,5.8344,5.8341,5.8386,5.8432,5.8468,5.8503,5.8534,5.8561,5.855,5.8587,5.864,5.867,5.8727,5.8775,5.8815,5.8826,5.8797,5.8795,5.8811,5.8817,5.8817,5.8816,5.8599,5.879,5.8788,5.8787,5.8786,5.8785,5.8467,5.8515,5.8542,5.8593,5.8616,5.8645,5.8689,5.8696,5.874,5.8788,5.8777,5.8836,5.8859,5.891,5.8925,5.897,5.8943,5.8967,5.8973,5.8978,5.8985,5.8811,5.8977,5.8977,5.8976,5.8976,5.8975,0,5.8635,5.8651,5.8698,5.8743,5.8783,5.8755,5.8788,5.8822,5.8875,5.8901,5.8939,5.8998,5.9044,5.9052,5.9095,5.9129,5.9117,5.914,5.9137,5.9139,5.9008,5.8989,5.9149,5.9149,5.9149,5.9149,5.9149,5.9149,5.8726,5.8805,5.8805,5.8893,5.8908,5.8967,5.8988,5.9014,5.9034,5.9103,5.9141,5.9147,5.9164,5.9208,5.9249,5.9249,5.9266,5.9294,5.929,5.9166,5.9149,5.9132,5.9114,5.9298,5.9299,5.9417,5.9418,5.9419]}]]